| time (UTC) | temp F | wind direction | speed MPH | gust MPH | rain 1hr in | rain 24hr in | rain mn in | humidity % | barometer mb |
| 20260504150516 | 66 | 235 | 2.0 | 7.0 | 0.00 | 0.00 | 0.00 | 43 | 1012.9 |
| 20260504140537 | 64 | 211 | 2.0 | 5.0 | 0.00 | 0.00 | 0.00 | 45 | 1013.2 |
| 20260504130536 | 60 | 183 | 3.0 | 7.0 | 0.00 | 0.00 | 0.00 | 51 | 1013.8 |
| 20260504110517 | 52 | 189 | 1.0 | 4.0 | 0.00 | 0.00 | 0.00 | 56 | 1013.9 |
| 20260504100519 | 48 | 192 | 1.0 | 3.0 | 0.00 | 0.00 | 0.00 | 63 | 1013.7 |
| 20260504081517 | 53 | 183 | 1.0 | 3.0 | 0.00 | 0.00 | 0.00 | 53 | 1013.1 |
| 20260504080516 | 53 | 183 | 1.0 | 3.0 | 0.00 | 0.00 | 0.00 | 52 | 1013.1 |
| 20260504050016 | 44 | 16 | 0.0 | 1.0 | 0.00 | 0.00 | 0.00 | 75 | 1012.5 |
| 20260504045016 | 44 | 69 | 0.0 | 1.0 | 0.00 | 0.00 | 0.00 | 74 | 1012.5 |
| 20260504044036 | 44 | 301 | 0.0 | 0.0 | 0.00 | 0.00 | 0.00 | 74 | 1012.4 |
| 20260504043037 | 44 | 167 | 0.0 | 1.0 | 0.00 | 0.00 | 0.00 | 74 | 1012.3 |
| 20260504042016 | 44 | 0.0 | 0.0 | 0.00 | 0.00 | 0.00 | 75 | 1012.2 | |
| 20260504041037 | 44 | 24 | 0.0 | 0.0 | 0.00 | 0.00 | 0.00 | 74 | 1012.2 |
| 20260504040017 | 44 | 177 | 0.0 | 1.0 | 0.00 | 0.00 | 0.00 | 74 | 1012.2 |
| 20260504035017 | 44 | 21 | 0.0 | 1.0 | 0.00 | 0.00 | 0.00 | 73 | 1012.2 |
| 20260504034017 | 44 | 211 | 0.0 | 0.0 | 0.00 | 0.00 | 0.00 | 73 | 1012.2 |
| 20260504033017 | 45 | 33 | 0.0 | 1.0 | 0.00 | 0.00 | 0.00 | 73 | 1012.2 |
| 20260504032017 | 45 | 233 | 0.0 | 1.0 | 0.00 | 0.00 | 0.00 | 72 | 1012.1 |
| 20260504031018 | 45 | 23 | 0.0 | 1.0 | 0.00 | 0.00 | 0.00 | 72 | 1012.2 |
| 20260504030038 | 45 | 167 | 0.0 | 1.0 | 0.00 | 0.00 | 0.00 | 71 | 1012.1 |
| 20260504025017 | 46 | 252 | 0.0 | 1.0 | 0.00 | 0.00 | 0.00 | 70 | 1012.1 |
| 20260504024018 | 46 | 27 | 0.0 | 1.0 | 0.00 | 0.00 | 0.00 | 69 | 1012.1 |
| 20260504023018 | 47 | 176 | 0.0 | 1.0 | 0.00 | 0.00 | 0.00 | 68 | 1012.2 |
| 20260504022016 | 47 | 160 | 0.0 | 1.0 | 0.00 | 0.00 | 0.00 | 67 | 1012.3 |
| 20260504021015 | 48 | 154 | 0.0 | 1.0 | 0.00 | 0.00 | 0.00 | 66 | 1012.2 |
| 20260504020016 | 48 | 97 | 0.0 | 0.0 | 0.00 | 0.00 | 0.00 | 62 | 1012.2 |
| 20260504015015 | 49 | 134 | 0.0 | 1.0 | 0.00 | 0.00 | 0.00 | 60 | 1012.1 |
| 20260504014015 | 49 | 104 | 0.0 | 1.0 | 0.00 | 0.00 | 0.00 | 59 | 1012.0 |
| 20260504013016 | 50 | 109 | 0.0 | 1.0 | 0.00 | 0.00 | 0.00 | 57 | 1011.9 |
| 20260504012017 | 51 | 135 | 0.0 | 1.0 | 0.00 | 0.00 | 0.00 | 55 | 1011.8 |
| 20260504011037 | 52 | 15 | 0.0 | 1.0 | 0.00 | 0.00 | 0.00 | 53 | 1011.6 |
| 20260504010018 | 52 | 43 | 0.0 | 0.0 | 0.00 | 0.00 | 0.00 | 51 | 1011.5 |
| 20260504005038 | 53 | 87 | 0.0 | 1.0 | 0.00 | 0.00 | 0.00 | 51 | 1011.4 |
| 20260504004018 | 53 | 99 | 0.0 | 1.0 | 0.00 | 0.00 | 0.00 | 50 | 1011.3 |
| 20260504003018 | 54 | 133 | 0.0 | 1.0 | 0.00 | 0.00 | 0.00 | 51 | 1011.2 |
| 20260504002018 | 54 | 136 | 0.0 | 1.0 | 0.00 | 0.00 | 0.00 | 53 | 1011.0 |
| 20260504001015 | 55 | 197 | 0.0 | 1.0 | 0.00 | 0.00 | 0.00 | 46 | 1010.8 |
| 20260504000016 | 56 | 33 | 0.0 | 1.0 | 0.00 | 0.00 | 0.00 | 43 | 1010.8 |
| 20260503235016 | 57 | 178 | 0.0 | 2.0 | 0.00 | 0.00 | 0.00 | 42 | 1010.7 |
| 20260503234017 | 57 | 294 | 0.0 | 1.0 | 0.00 | 0.00 | 0.00 | 40 | 1010.5 |
| 20260503233016 | 58 | 241 | 0.0 | 3.0 | 0.00 | 0.00 | 0.00 | 39 | 1010.4 |
| 20260503232016 | 58 | 235 | 1.0 | 3.0 | 0.00 | 0.00 | 0.00 | 39 | 1010.4 |
| 20260503231016 | 58 | 220 | 1.0 | 4.0 | 0.00 | 0.00 | 0.00 | 39 | 1010.3 |
| 20260503230017 | 58 | 266 | 1.0 | 3.0 | 0.00 | 0.00 | 0.00 | 38 | 1010.2 |
| 20260503225016 | 59 | 233 | 1.0 | 4.0 | 0.00 | 0.00 | 0.00 | 36 | 1010.1 |
| 20260503224017 | 59 | 245 | 1.0 | 6.0 | 0.00 | 0.00 | 0.00 | 36 | 1010.1 |
| 20260503223017 | 60 | 248 | 1.0 | 5.0 | 0.00 | 0.00 | 0.00 | 35 | 1010.1 |
| 20260503222017 | 60 | 277 | 1.0 | 4.0 | 0.00 | 0.00 | 0.00 | 35 | 1010.1 |
| 20260503221038 | 59 | 246 | 1.0 | 5.0 | 0.00 | 0.00 | 0.00 | 35 | 1010.1 |
| 20260503220017 | 60 | 240 | 2.0 | 5.0 | 0.00 | 0.00 | 0.00 | 35 | 1010.1 |
| 20260503215018 | 60 | 229 | 2.0 | 4.0 | 0.00 | 0.00 | 0.00 | 35 | 1010.1 |
| 20260503214038 | 60 | 304 | 2.0 | 6.0 | 0.00 | 0.00 | 0.00 | 36 | 1010.1 |
| 20260503213018 | 60 | 243 | 2.0 | 5.0 | 0.00 | 0.00 | 0.00 | 35 | 1010.0 |
| 20260503212018 | 59 | 260 | 1.0 | 4.0 | 0.00 | 0.00 | 0.00 | 37 | 1009.9 |
| 20260503211015 | 59 | 229 | 1.0 | 5.0 | 0.00 | 0.00 | 0.00 | 37 | 1009.9 |
| 20260503210015 | 59 | 261 | 2.0 | 6.0 | 0.00 | 0.00 | 0.00 | 37 | 1009.8 |
| 20260503205015 | 59 | 274 | 2.0 | 4.0 | 0.00 | 0.00 | 0.00 | 38 | 1009.8 |
| 20260503204016 | 58 | 276 | 2.0 | 8.0 | 0.00 | 0.00 | 0.00 | 38 | 1010.0 |
| 20260503203036 | 58 | 252 | 2.0 | 6.0 | 0.00 | 0.00 | 0.00 | 38 | 1010.0 |
| 20260503202016 | 58 | 233 | 2.0 | 6.0 | 0.00 | 0.00 | 0.00 | 37 | 1010.0 |
| 20260503201037 | 58 | 262 | 2.0 | 6.0 | 0.00 | 0.00 | 0.00 | 38 | 1010.0 |
| 20260503200016 | 58 | 242 | 2.0 | 5.0 | 0.00 | 0.00 | 0.00 | 39 | 1010.1 |
| 20260503195016 | 57 | 257 | 2.0 | 6.0 | 0.00 | 0.00 | 0.00 | 40 | 1010.1 |
| 20260503194017 | 57 | 252 | 2.0 | 6.0 | 0.00 | 0.00 | 0.00 | 39 | 1010.2 |
| 20260503193037 | 57 | 240 | 2.0 | 6.0 | 0.00 | 0.00 | 0.00 | 40 | 1010.3 |
| 20260503192017 | 57 | 232 | 2.0 | 5.0 | 0.00 | 0.00 | 0.00 | 41 | 1010.4 |
| 20260503191017 | 57 | 235 | 2.0 | 7.0 | 0.00 | 0.00 | 0.00 | 40 | 1010.5 |
| 20260503190018 | 55 | 281 | 2.0 | 5.0 | 0.00 | 0.00 | 0.00 | 43 | 1010.7 |
| 20260503185018 | 56 | 237 | 3.0 | 6.0 | 0.00 | 0.00 | 0.00 | 42 | 1010.8 |
| 20260503184017 | 56 | 234 | 2.0 | 6.0 | 0.00 | 0.00 | 0.00 | 41 | 1010.8 |
| 20260503183018 | 55 | 266 | 2.0 | 7.0 | 0.00 | 0.00 | 0.00 | 44 | 1010.9 |
| 20260503182018 | 55 | 255 | 2.0 | 6.0 | 0.00 | 0.00 | 0.00 | 44 | 1010.9 |
| 20260503181018 | 55 | 241 | 2.0 | 5.0 | 0.00 | 0.00 | 0.00 | 43 | 1010.9 |
| 20260503180018 | 55 | 238 | 3.0 | 10.0 | 0.00 | 0.00 | 0.00 | 42 | 1010.9 |
| 20260503175015 | 54 | 263 | 2.0 | 5.0 | 0.00 | 0.00 | 0.00 | 44 | 1010.9 |
| 20260503174036 | 55 | 245 | 2.0 | 6.0 | 0.00 | 0.00 | 0.00 | 44 | 1010.8 |
| 20260503173016 | 54 | 245 | 2.0 | 8.0 | 0.00 | 0.00 | 0.00 | 45 | 1010.9 |